Terug naar catalogus

OV2-5

ActiefMilitairGEO
NORAD 3428·PAYLOAD·🇺🇸 United States

Gelanceerd Sep 26, 1968 vanaf Cape Canaveral Space Force Station

Loading…

TLE

VersSource: Space-Track

Epoch: Sep 14, 2026, 13:56 UTC

1 03428U 68081A   26257.58064771  .00000017  00000-0  00000-0 0  9998
2 03428   2.1893  52.4062 0078751 283.0788 255.8033  1.01558403121967

Volg OV2-5 in realtime met AllMySat

Download on the App Store